Weather History for Dublin, GA

Change the Weather History Date:

Sunday, November 20, 2011

  Actual Average Record
Temperature  
Mean Temperature 63 °F -  
Max Temperature 73 °F 69 °F 84 °F (1942)
Min Temperature 53 °F 41 °F 23 °F (1951)
Degree Days  
Heating Degree Days 2    
Growing Degree Days 13 (Base 50)    
Moisture  
Dew Point 58 °F    
Average Humidity 93    
Maximum Humidity 100    
Minimum Humidity 69    
Precipitation  
Precipitation 0.00 in - - ()
Sea Level Pressure  
Sea Level Pressure 30.32 in    
Wind  
Wind Speed 1 mph (South)    
Max Wind Speed 7 mph    
Max Gust Speed -    
Visibility 7 miles    
Events Fog , Rain    
Averages and records for this station are not official NWS values.
T = Trace of Precipitation, MM = Missing Value Source: NWS Daily Summary

Daily Weather History Graph

Daily Weather History Graph

Search for Another Location

Airport:

Trip Planner

Search our weather history database for the weather conditions in past years. The results will help you decide how hot, cold, wet, or windy it might be!

Date:

Astronomy

Nov. 20, 2011 Rise Set
Actual Time 7:05 AM EST 5:28 PM EST
Civil Twilight 6:39 AM EST 5:55 PM EST
Nautical Twilight 6:09 AM EST 6:25 PM EST
Astronomical Twilight 5:40 AM EST 6:54 PM EST
Moon 1:49 AM EST (11/20) 2:03 PM EST (11/20)
Length of Visible Light 11h 15m
Length of Day
10h 22m
Waning Crescent, 27% of the Moon is Illuminated
Nov 20
Waning Crescent
Nov 25
New
Dec 2
First Quarter
Dec 10
Full
Dec 17
Last Quarter

Hourly Weather History & Observations

Time (EST) Temp. Dew Point Humidity Pressure Visibility Wind Dir Wind Speed Gust Speed Precip Events Conditions
12:15 AM 59.0 °F 55.4 °F 88% 30.30 in 10.0 mi ESE 3.5 mph - N/A   Scattered Clouds
12:35 AM 59.0 °F 55.4 °F 88% 30.29 in 10.0 mi SE 3.5 mph - N/A   Clear
1:15 AM 57.2 °F 55.4 °F 94% 30.30 in 10.0 mi Calm Calm - N/A   Clear
1:35 AM 55.4 °F 53.6 °F 94% 30.29 in 10.0 mi Calm Calm - N/A   Clear
1:55 AM 53.6 °F 53.6 °F 100% 30.29 in 7.0 mi Calm Calm - N/A   Clear
2:15 AM 53.6 °F 53.6 °F 100% 30.29 in 10.0 mi Calm Calm - N/A   Mostly Cloudy
2:35 AM 53.6 °F 53.6 °F 100% 30.29 in 10.0 mi Calm Calm - N/A   Scattered Clouds
2:55 AM 55.4 °F 53.6 °F 94% 30.29 in 10.0 mi Calm Calm - N/A   Scattered Clouds
3:15 AM 53.6 °F 53.6 °F 100% 30.29 in 7.0 mi Calm Calm - N/A   Clear
3:35 AM 53.6 °F 53.6 °F 100% 30.29 in 7.0 mi Calm Calm - N/A   Mostly Cloudy
3:55 AM 53.6 °F 53.6 °F 100% 30.30 in 7.0 mi Calm Calm - N/A   Overcast
4:15 AM 55.4 °F 55.4 °F 100% 30.29 in 7.0 mi Calm Calm - N/A   Overcast
4:35 AM 57.2 °F 55.4 °F 94% 30.30 in 10.0 mi Calm Calm - N/A   Overcast
4:55 AM 57.2 °F 55.4 °F 94% 30.30 in 7.0 mi NNE 3.5 mph - N/A   Overcast
5:15 AM 57.2 °F 55.4 °F 94% 30.31 in 7.0 mi NNE 3.5 mph - N/A   Overcast
5:35 AM 57.2 °F 55.4 °F 94% 30.31 in 7.0 mi NE 3.5 mph - N/A   Overcast
5:55 AM 57.2 °F 55.4 °F 94% 30.31 in 10.0 mi Calm Calm - N/A   Overcast
6:15 AM 57.2 °F 55.4 °F 94% 30.32 in 10.0 mi Calm Calm - N/A   Overcast
6:35 AM 57.2 °F 55.4 °F 94% 30.33 in 10.0 mi Calm Calm - N/A   Overcast
6:55 AM 57.2 °F 55.4 °F 94% 30.33 in 7.0 mi Calm Calm - N/A Rain Rain
7:35 AM 57.2 °F 55.4 °F 94% 30.34 in 5.0 mi Calm Calm - N/A   Drizzle
7:55 AM 55.4 °F 55.4 °F 100% 30.34 in 5.0 mi Calm Calm - N/A   Overcast
8:15 AM 57.2 °F 55.4 °F 94% 30.35 in 5.0 mi Calm Calm - N/A   Overcast
8:55 AM 57.2 °F 57.2 °F 100% 30.37 in 4.0 mi Calm Calm - N/A   Light Drizzle
9:15 AM 57.2 °F 55.4 °F 94% 30.38 in 5.0 mi Calm Calm - N/A Rain Light Rain
9:35 AM 59.0 °F 57.2 °F 94% 30.38 in 3.0 mi Calm Calm - N/A Rain Light Rain
9:55 AM 59.0 °F 57.2 °F 94% 30.39 in 4.0 mi Calm Calm - N/A   Heavy Drizzle
10:15 AM 59.0 °F 59.0 °F 100% 30.38 in 5.0 mi Calm Calm - N/A Rain Light Rain
10:35 AM 59.0 °F 59.0 °F 100% 30.39 in 5.0 mi Calm Calm - N/A   Overcast
10:55 AM 60.8 °F 59.0 °F 94% 30.38 in 5.0 mi Calm Calm - N/A   Overcast
11:15 AM 60.8 °F 60.8 °F 100% 30.38 in 5.0 mi Calm Calm - N/A   Overcast
11:35 AM 60.8 °F 60.8 °F 100% 30.37 in 5.0 mi Calm Calm - N/A   Overcast
11:55 AM 62.6 °F 60.8 °F 94% 30.35 in 5.0 mi Calm Calm - N/A   Overcast
12:15 PM 62.6 °F 62.6 °F 100% 30.34 in 5.0 mi Calm Calm - N/A   Overcast
1:15 PM 69.8 °F 64.4 °F 83% 30.31 in 10.0 mi Calm Calm - N/A   Mostly Cloudy
1:55 PM 71.6 °F 64.4 °F 78% 30.30 in 10.0 mi South 4.6 mph - N/A   Mostly Cloudy
2:15 PM 71.6 °F 64.4 °F 78% 30.30 in 10.0 mi South 3.5 mph - N/A   Overcast
2:55 PM 73.4 °F 64.4 °F 73% 30.29 in 10.0 mi South 5.8 mph - N/A   Mostly Cloudy
3:15 PM 71.6 °F 64.4 °F 78% 30.29 in 10.0 mi South 4.6 mph - N/A   Scattered Clouds
3:35 PM 73.4 °F 64.4 °F 73% 30.28 in 10.0 mi SW 6.9 mph - N/A   Clear
3:55 PM 73.4 °F 62.6 °F 69% 30.29 in 10.0 mi SW 6.9 mph - N/A   Mostly Cloudy
4:15 PM 73.4 °F 62.6 °F 69% 30.29 in 10.0 mi SW 4.6 mph - N/A   Overcast
4:35 PM 71.6 °F 62.6 °F 73% 30.29 in 10.0 mi SW 3.5 mph - N/A   Overcast
4:55 PM 71.6 °F 62.6 °F 73% 30.29 in 10.0 mi SSW 3.5 mph - N/A   Mostly Cloudy
5:15 PM 69.8 °F 62.6 °F 78% 30.30 in 10.0 mi Calm Calm - N/A   Overcast
5:35 PM 69.8 °F 62.6 °F 78% 30.30 in 10.0 mi Calm Calm - N/A   Mostly Cloudy
5:55 PM 66.2 °F 62.6 °F 88% 30.30 in 10.0 mi Calm Calm - N/A   Mostly Cloudy
6:15 PM 62.6 °F 60.8 °F 94% 30.31 in 10.0 mi Calm Calm - N/A   Scattered Clouds
6:35 PM 62.6 °F 62.6 °F 100% 30.31 in 10.0 mi Calm Calm - N/A   Clear
6:55 PM 60.8 °F 60.8 °F 100% 30.31 in 5.0 mi Calm Calm - N/A   Clear
7:15 PM 60.8 °F 60.8 °F 100% 30.31 in 2.5 mi Calm Calm - N/A   Clear
7:35 PM 60.8 °F 60.8 °F 100% 30.31 in 3.0 mi Calm Calm - N/A   Clear
7:55 PM 60.8 °F 60.8 °F 100% 30.31 in 0.5 mi Calm Calm - N/A Fog Fog
8:15 PM 60.8 °F 60.8 °F 100% 30.31 in 0.8 mi Calm Calm - N/A   Mist
8:35 PM 60.8 °F 60.8 °F 100% 30.32 in 7.0 mi NNW 3.5 mph - N/A   Clear
8:55 PM 60.8 °F 59.0 °F 94% 30.32 in 7.0 mi Calm Calm - N/A   Clear
9:15 PM 59.0 °F 59.0 °F 100% 30.32 in 0.8 mi Calm Calm - N/A   Mist
9:35 PM 59.0 °F 59.0 °F 100% 30.31 in 3.0 mi Calm Calm - N/A   Scattered Clouds
9:55 PM 57.2 °F 57.2 °F 100% 30.31 in 0.8 mi Calm Calm - N/A   Mist
10:15 PM 55.4 °F 55.4 °F 100% 30.31 in 0.2 mi Calm Calm - N/A Fog Fog
10:35 PM 55.4 °F 55.4 °F 100% 30.31 in 0.2 mi Calm Calm - N/A Fog Fog
10:55 PM 57.2 °F 57.2 °F 100% 30.31 in 0.5 mi Calm Calm - N/A Fog Fog
11:15 PM 59.0 °F 59.0 °F 100% 30.31 in 5.0 mi Calm Calm - N/A   Mostly Cloudy
11:35 PM 59.0 °F 59.0 °F 100% 30.30 in 7.0 mi Calm Calm - N/A   Overcast
11:55 PM 57.2 °F 57.2 °F 100% 30.29 in 7.0 mi Calm Calm - N/A   Mostly Cloudy